Location: Barcelona
(41.3830°N, 2.1830°E)
Time: 06:54:37
(UTC+01:00)

ISS - Pass Details

Date: 26 November 2020
Orbit: 418 x 420 km, 51.6° (Epoch: 04 December)

Event Time Altitude Azimuth Distance (km) Brightness Sun altitude
Rises 19:45:09 0° 296° (WNW) 2,362 0.9 -26.0°
Reaches altitude 10° 19:48:00 10° 322° (NW) 1,499 -0.6 -26.5°
Enters shadow 19:48:10 11° 325° (NW) 1,463 -0.7 -26.5°
